This is the latest recevied weather packets stored in our database for station/object KB7STN. If no packets are shown the sender has not sent any weather packets the latest 10 day(s).
| Time | Temp. | Humidity | Pressure | Rain* | Wind** | Luminosity | Snow |
|---|---|---|---|---|---|---|---|
| 1777580549 | 15.56° C | 27% | 1011.2 hPa | 0 mm | - | - | - |
| 1777580249 | 15.56° C | 25% | 1011.3 hPa | 0 mm | - | - | - |
| 1777579948 | 15° C | 24% | 1011.3 hPa | 0 mm | - | - | - |
| 1777579649 | 15° C | 28% | 1011.4 hPa | 0 mm | - | - | - |
| 1777579349 | 15° C | 26% | 1011.4 hPa | 0 mm | - | - | - |
| 1777579049 | 15.56° C | 26% | 1011.4 hPa | 0 mm | - | - | - |
| 1777578748 | 15.56° C | 30% | 1011.5 hPa | 0 mm | - | - | - |
| 1777578449 | 15.56° C | 28% | 1011.5 hPa | 0 mm | - | - | - |
| 1777578149 | 15° C | 28% | 1011.4 hPa | 0 mm | - | - | - |
| 1777577849 | 15° C | 32% | 1011.4 hPa | 0 mm | - | - | - |
| 1777577549 | 15° C | 31% | 1011.5 hPa | 0 mm | - | - | - |
| 1777577249 | 15° C | 31% | 1011.7 hPa | 0 mm | - | - | - |
| 1777576949 | 15° C | 30% | 1011.7 hPa | 0 mm | - | - | - |
| 1777576649 | 15° C | 30% | 1011.7 hPa | 0 mm | - | - | - |
| 1777576349 | 15° C | 32% | 1011.7 hPa | 0 mm | - | - | - |
| 1777576049 | 15° C | 32% | 1011.9 hPa | 0 mm | - | - | - |
| 1777575749 | 15° C | 33% | 1011.9 hPa | 0 mm | - | - | - |
| 1777575449 | 15° C | 30% | 1011.9 hPa | 0 mm | - | - | - |
| 1777575149 | 15° C | 32% | 1012 hPa | 0 mm | - | - | - |
| 1777574849 | 14.44° C | 35% | 1012 hPa | 0 mm | - | - | - |
| 1777574549 | 14.44° C | 32% | 1012.1 hPa | 0 mm | - | - | - |
| 1777574249 | 14.44° C | 35% | 1012.2 hPa | 0 mm | - | - | - |
| 1777573949 | 14.44° C | 37% | 1012.2 hPa | 0 mm | - | - | - |
| 1777573649 | 14.44° C | 33% | 1012.4 hPa | 0 mm | - | - | - |
| 1777573349 | 13.89° C | 36% | 1012.4 hPa | 0 mm | - | - | - |
* Rain latest hour (hover to see other rain measurements)
** Current wind speed in m/s (hover to see current wind gust speed)